Location: Dana
(41.8364°N, 106.7042°W)
Time: 12:07:49
(UTC+00:00)

Injun/Solrad 3 - Pass Details

Date: 14 May 2026
Orbit: 867 x 989 km, 66.8° (Epoch: 11 June)

Event Time Altitude Azimuth Distance (km) Brightness Sun altitude
Rises 22:13:05 0° 194° (SSW) 3,490 11.2 43.8°
Reaches altitude 10° 22:15:34 10° 190° (S) 2,569 10.6 43.3°
Maximum altitude 22:21:23 56° 114° (ESE) 1,086 8.6 42.3°
Drops below altitude 10° 22:27:25 10° 38° (NE) 2,669 10.0 41.2°
Sets 22:30:03 0° 34° (NE) 3,636 10.7 40.7°
